Temp
11 11 11 11 10 9 9 9 8 8 9 9 9 9 8 9 10 10 11 12 13 14 14 14 14 14 14 17 20 19 18 17 17 17 19 20 20 21 21 21 20 20 22 21 21 20 20
9 9 9 8 8 8 9 8 8 8 8 9 8 8 8 8 9 10 11 13 13 14 15 14 13 13 14 17 19 18 17 16 16 17 18 19 21 21 21 20 20 21 20 20 20 20 20
8 8 8 8 8 8 8 8 8 8 8 8 8 8 8 10 10 11 11 12 14 14 14 14 13 12 15 19 17 17 16 16 17 17 18 18 19 20 20 20 20 19 19 21 21 20 20
8 8 8 8 8 8 8 8 8 8 8 8 8 8 7 7 9 10 11 13 13 13 13 13 12 11 17 16 16 16 16 16 16 16 17 17 17 19 19 19 19 19 19 21 21 18 19
8 8 8 8 8 8 8 8 8 8 8 8 8 8 7 7 9 10 11 13 13 12 12 12 11 13 17 15 15 15 15 17 16 16 16 16 18 19 18 19 19 19 21 20 21 19 18
8 8 8 8 7 7 8 8 8 8 8 8 8 7 7 7 9 9 12 14 13 11 10 11 12 14 16 17 15 14 15 16 17 16 16 17 18 18 18 19 20 22 19 20 21 19 18
7 7 7 7 7 7 7 7 7 7 7 7 7 7 7 7 9 9 11 12 14 15 12 15 15 14 15 15 15 15 15 16 17 17 17 16 17 18 20 20 21 21 22 21 22 20 18
7 7 7 7 7 7 7 7 7 7 7 7 7 7 7 7 9 9 9 11 7 7 8 12 11 11 12 13 15 16 15 17 16 17 16 16 17 20 20 19 18 19 19 20 20 19 17
7 7 7 7 7 7 6 6 6 7 7 6 6 6 7 7 9 9 8 7 7 6 9 12 12 13 14 13 15 15 16 16 16 16 16 17 19 16 17 17 16 18 18 19 19 18 17
6 6 6 6 6 6 6 6 6 6 6 6 6 6 6 6 9 7 9 7 7 7 12 16 14 14 13 14 15 14 15 16 15 16 16 16 18 16 16 16 18 17 18 17 17 16 18
6 6 6 6 6 6 6 6 6 6 6 6 6 6 6 6 6 8 8 8 7 8 16 15 14 14 14 15 15 14 13 15 16 15 15 17 15 14 15 17 17 17 16 16 16 16 16
6 7 7 6 6 6 6 6 6 6 6 6 6 7 7 6 6 8 7 8 8 14 15 16 14 14 14 14 14 14 14 14 14 14 14 15 14 14 16 16 15 16 15 15 15 16 15
6 6 6 6 6 6 6 6 6 6 6 6 6 7 7 5 8 7 7 9 14 15 16 15 14 13 13 15 15 14 14 14 15 13 15 15 15 15 15 16 14 16 17 17 16 14 17
6 6 6 6 6 6 6 6 6 6 6 6 6 7 6 6 6 7 7 12 13 16 15 12 12 13 13 15 15 14 14 15 14 14 16 15 16 14 15 16 17 15 17 17 16 18 19
6 6 6 6 6 6 6 6 6 6 6 6 5 6 5 6 7 7 10 12 16 14 11 11 13 13 14 13 13 13 14 15 15 14 15 15 15 14 14 15 16 14 14 17 16 17 15
6 6 6 5 6 6 5 6 6 6 6 5 5 5 6 6 7 7 10 10 11 10 10 11 12 13 13 13 13 13 13 13 13 12 13 14 14 13 13 13 14 15 16 14 15 14 14
6 5 5 5 5 5 5 5 5 5 5 5 5 6 7 7 7 8 8 9 9 10 10 10 10 11 11 11 11 12 13 13 12 12 12 13 13 14 12 13 15 13 14 14 14 15 15
5 5 5 5 5 5 5 5 5 5 5 5 3 5 7 7 8 7 8 9 7 8 9 9 9 10 10 11 11 11 12 13 11 12 12 13 12 12 13 13 11 12 14 14 12 13 13
5 5 5 5 5 5 5 5 5 5 5 4 4 4 5 6 7 8 8 7 8 8 9 9 9 9 10 9 9 10 10 9 10 10 12 11 11 11 12 11 11 11 12 11 9 8 11
5 5 5 5 5 5 5 4 5 4 5 4 4 5 6 5 7 7 7 7 7 8 8 8 8 7 8 8 8 7 7 9 8 9 9 8 9 11 12 13 12 10 10 11 10 9 9
5 5 5 5 5 4 4 4 4 4 4 4 3 4 4 6 7 7 7 6 5 7 8 8 8 8 7 5 6 7 9 9 8 6 6 7 8 9 8 9 10 11 10 9 8 9 7
4 4 5 5 4 4 4 5 5 5 4 3 4 4 3 4 5 6 6 5 6 7 6 6 7 7 7 5 6 5 6 6 7 7 6 5 6 7 6 7 7 7 8 9 9 10 9
5 4 5 4 4 4 4 5 5 4 4 3 2 2 3 4 5 4 5 5 6 6 5 7 7 6 6 6 5 4 5 5 5 5 7 6 7 6 6 7 7 6 7 8 5 1 2
4 4 4 4 4 4 4 4 4 4 4 3 3 1 2 4 4 5 5 5 5 5 4 5 6 4 6 5 3 3 3 4 4 5 6 6 6 6 6 5 6 2 0 1 1 -3 -2
4 4 4 4 4 4 4 4 4 4 4 3 3 3 2 3 4 5 5 4 4 4 4 4 5 5 5 4 3 5 5 3 4 4 4 4 4 6 6 6 4 1 -1 -1 -0 -4 -5
4 4 4 4 4 4 3 3 3 3 3 3 3 3 2 2 5 4 3 4 4 4 5 4 5 3 3 4 4 4 6 7 6 4 3 3 3 5 6 5 5 -2 -3 -5 -4 -2 -6
3 3 3 3 3 3 3 3 3 3 3 3 3 3 2 2 3 3 3 4 3 3 4 3 4 3 2 4 5 5 5 2 5 5 4 4 4 5 6 5 -3 -8 -8 -6 -0 -4 -7
3 3 3 3 3 3 3 3 3 3 3 3 3 3 2 2 2 1 2 2 2 3 4 3 3 3 3 4 5 6 4 4 4 -1 -1 1 -1 2 3 5 2 -10 -7 -5 -9 -8 -9
3 3 3 3 2 2 2 2 3 3 3 3 3 3 3 1 1 -1 -2 -3 -3 -2 -1 1 3 3 4 4 4 4 4 3 3 3 -6 -2 -9 -6 -9 -9 -10 -11 -11 -10 -10 -10 -10
Height
858 856 854 851 848 845 843 839 836 833 830 826 822 818 814 809 805 800 795 791 787 783 780 777 775 773 773 771 756 749 749 751 753 756 757 757 759 760 762 759 763 763 754 754 752 755 754
858 856 854 852 849 846 843 840 837 833 830 826 822 817 812 807 802 796 790 784 780 776 773 771 769 769 771 765 747 747 748 750 751 753 754 755 751 753 755 756 757 752 754 752 751 749 750
860 857 855 853 850 847 844 840 837 833 830 825 820 815 810 804 798 792 785 779 773 769 765 763 762 764 763 748 744 745 747 749 750 751 752 752 752 752 751 754 752 754 756 745 741 741 745
860 858 856 853 850 846 843 840 836 832 829 824 819 814 809 803 796 787 778 771 767 762 759 757 758 762 751 743 743 744 745 748 749 750 751 751 752 752 753 753 754 755 755 747 732 742 742
860 858 855 853 850 846 844 840 837 832 828 823 818 813 807 801 793 783 774 766 760 757 756 755 758 758 746 741 741 741 743 745 749 751 751 752 752 751 754 754 752 749 738 741 734 735 741
860 858 855 852 849 846 843 840 836 832 828 823 817 812 807 800 792 782 772 761 757 757 757 757 757 759 743 739 740 740 741 744 746 749 752 752 751 748 749 747 738 729 742 736 730 733 738
859 857 855 852 848 845 842 838 834 831 826 821 816 810 805 798 791 782 771 762 763 758 758 751 749 746 741 741 739 739 740 742 744 746 746 749 747 739 728 729 721 724 722 723 721 727 735
858 856 853 851 848 845 841 837 833 829 825 820 814 808 802 796 789 784 779 778 789 789 768 750 746 746 743 742 741 737 740 740 740 739 743 749 737 725 724 728 732 731 729 725 722 729 737
858 856 853 850 847 845 841 836 832 828 824 819 814 809 802 795 788 786 786 788 787 785 776 744 742 739 737 740 736 734 737 736 736 737 737 731 720 731 731 731 734 727 728 725 725 730 733
858 856 853 849 846 842 839 834 830 827 824 819 814 808 802 795 791 790 788 787 785 784 762 734 736 735 738 737 734 733 734 735 738 733 733 730 720 728 729 728 724 723 721 727 728 734 726
857 855 852 848 845 841 837 833 829 824 820 817 812 808 803 798 796 793 791 786 784 785 754 735 736 737 736 737 735 735 737 735 731 732 735 719 727 730 726 716 721 720 724 725 728 727 730
856 854 851 848 844 840 837 833 829 824 820 815 810 805 801 798 794 790 786 783 783 768 754 731 734 735 736 734 733 735 735 736 735 733 732 722 728 724 715 717 720 720 724 727 730 724 723
855 852 849 846 843 839 835 832 828 824 819 814 808 803 798 796 791 788 785 784 771 760 731 736 738 739 739 730 729 731 731 732 727 734 723 719 715 715 716 717 722 718 716 716 716 727 702
854 851 847 844 840 837 833 830 826 822 818 813 807 801 795 791 789 787 784 775 770 738 735 747 745 740 735 727 725 727 725 720 721 723 715 712 707 710 708 703 699 710 706 703 702 688 683
852 849 845 842 838 835 831 828 823 820 816 811 805 798 793 791 789 787 782 768 740 745 753 750 739 735 728 731 731 727 722 714 712 716 714 708 705 709 709 706 703 709 711 696 700 694 705
849 846 843 839 836 832 829 825 822 818 814 811 806 800 793 790 789 788 780 767 757 761 759 754 745 735 730 728 729 726 717 716 714 717 718 708 707 706 706 708 706 702 699 707 705 704 695
846 843 840 836 834 830 826 823 819 817 812 809 805 799 791 789 788 787 782 768 767 763 763 759 750 744 739 738 733 725 713 712 714 716 718 714 711 701 708 700 690 702 697 698 696 690 684
842 840 837 834 831 828 824 821 818 815 810 804 805 798 789 789 789 782 776 771 776 766 763 759 754 745 740 734 731 726 718 711 718 714 711 708 709 703 697 703 711 706 694 693 701 693 696
840 836 834 831 828 825 822 819 816 813 810 806 800 796 790 789 784 776 776 775 771 765 762 758 752 746 741 740 739 725 722 725 724 718 709 710 706 704 698 709 708 702 700 707 721 723 706
837 833 831 828 825 821 818 815 813 810 808 807 803 793 789 789 784 781 775 773 768 763 761 758 753 754 748 744 741 738 734 729 728 722 721 724 712 699 684 678 691 702 702 704 709 718 714
833 830 826 824 821 818 815 812 809 807 806 806 804 797 793 782 776 777 773 774 773 764 759 756 751 748 748 752 746 736 725 725 727 733 729 726 710 707 706 703 696 695 699 708 719 713 722
829 826 823 819 817 814 811 808 807 804 803 803 802 796 792 782 779 774 771 771 764 756 762 756 752 746 746 751 744 743 737 734 730 730 728 728 721 718 717 714 712 713 704 701 703 702 704
825 822 819 816 813 810 807 805 804 802 801 799 797 797 795 783 776 775 766 762 755 755 755 748 747 747 744 741 744 741 737 733 734 728 722 723 717 718 715 714 710 713 708 704 721 750 746
823 820 817 814 810 806 803 801 799 799 800 798 797 796 793 778 776 770 765 763 757 752 755 750 748 750 738 741 740 734 731 726 724 722 721 719 720 718 710 719 705 733 746 744 743 771 771
821 817 815 813 808 804 801 799 796 795 796 794 793 794 789 778 772 764 760 758 753 753 752 749 740 740 740 740 737 723 720 726 719 718 719 721 723 713 709 700 723 740 756 755 749 781 787
820 817 814 810 806 803 799 796 794 791 791 788 789 788 787 781 763 764 762 754 753 748 743 744 738 740 741 737 728 720 708 699 704 713 721 725 724 716 706 703 701 760 771 778 772 766 792
819 816 813 812 806 801 798 793 790 786 786 786 781 782 781 773 765 764 757 754 755 751 745 743 740 739 739 729 720 712 708 721 708 706 713 715 714 710 698 701 761 797 791 781 752 781 798
818 817 813 809 806 801 795 791 789 786 781 782 777 777 777 771 765 764 763 759 757 753 743 744 741 735 732 726 718 707 712 714 713 748 746 734 750 722 718 702 728 804 789 780 809 805 804
818 815 811 807 801 798 794 789 783 782 779 775 774 773 772 771 768 768 769 770 769 768 764 751 741 738 731 724 721 719 713 723 722 717 778 759 802 790 805 810 820 819 817 817 815 813 811
Wind_Speed
14 16 17 18 18 19 20 21 22 23 23 24 24 25 26 27 29 30 30 30 29 27 26 23 22 15 3 5 10 7 13 16 16 16 14 12 12 9 10 7 8 13 13 9 13 10 9
15 16 17 18 19 19 20 20 21 22 23 24 25 26 27 29 31 33 35 35 33 29 27 24 21 7 5 10 5 11 15 16 12 14 11 11 8 10 5 7 11 3 9 12 9 11 8
16 16 17 18 19 20 21 22 22 23 24 24 25 27 29 33 35 37 38 36 32 30 27 25 12 9 6 14 5 12 15 13 14 12 7 10 6 8 6 5 7 3 10 13 14 11 9
16 17 18 18 20 20 21 22 23 23 24 25 26 27 29 33 37 42 40 33 29 29 21 9 6 7 7 4 6 12 14 6 8 8 3 6 7 4 5 1 3 6 4 9 4 10 4
16 17 19 20 21 21 22 23 24 24 25 26 28 30 32 35 40 44 35 30 30 10 4 3 6 4 6 2 4 8 10 5 7 3 3 6 6 4 5 8 9 9 14 13 8 11 6
16 17 18 19 20 20 21 23 24 25 26 26 27 29 32 35 40 35 32 27 7 2 3 1 1 3 5 0 1 4 9 9 3 8 4 4 4 7 8 11 14 13 11 10 11 6 10
15 16 17 18 19 21 22 22 23 24 26 27 29 30 32 36 40 26 29 7 5 2 5 7 3 6 3 5 2 3 6 9 5 6 9 7 10 15 21 22 22 14 15 16 13 4 7
14 15 17 18 20 21 22 22 22 25 26 28 30 34 33 33 34 19 15 5 4 7 12 10 15 12 17 8 6 5 8 9 8 13 7 6 19 21 13 13 17 18 20 20 16 12 9
16 16 17 18 20 22 23 23 26 23 26 28 29 32 33 33 21 14 7 7 16 1 6 6 4 4 1 8 6 6 12 5 8 14 16 22 11 2 17 15 13 18 19 19 19 5 10
16 17 18 19 20 21 22 23 25 25 26 28 30 29 31 35 6 18 3 15 18 3 5 3 3 2 4 2 3 2 10 4 7 13 13 14 18 15 12 14 16 18 11 15 14 8 9
17 19 19 19 20 21 22 22 22 23 24 28 30 30 29 25 12 9 8 20 12 3 7 3 2 2 2 3 2 3 1 3 10 9 6 5 5 7 15 23 11 10 3 9 9 10 6
18 20 21 22 22 22 23 23 23 24 26 29 30 32 32 13 11 7 16 16 2 3 8 1 2 0 3 3 3 3 3 2 2 7 9 17 1 4 6 5 13 5 5 4 2 4 9
20 20 22 23 23 24 24 23 24 24 26 29 31 34 29 10 6 11 14 4 3 5 2 1 2 3 4 4 4 7 7 10 7 5 8 7 18 7 9 9 7 11 8 4 7 5 9
21 21 22 23 24 24 23 24 25 25 27 30 32 34 24 12 10 8 4 3 7 2 4 3 3 7 6 3 5 5 5 9 14 7 7 8 9 11 12 17 8 21 17 8 9 11 6
21 22 23 23 24 25 25 24 24 24 28 27 29 23 12 4 5 4 3 5 5 2 3 7 7 5 4 3 3 3 7 12 4 14 11 5 7 1 5 2 6 6 10 12 13 8 5
22 22 23 23 24 25 25 26 24 25 27 26 18 13 8 5 4 2 3 6 4 3 5 2 5 3 6 3 4 3 4 2 3 5 5 3 8 4 3 2 5 6 4 5 6 7 12
22 22 23 23 24 25 25 24 24 26 26 22 7 5 3 7 1 3 5 6 5 5 4 4 4 7 7 6 6 8 8 4 3 4 4 4 6 5 2 10 13 6 9 6 3 6 9
21 22 23 24 24 26 26 25 24 25 26 15 2 3 2 6 3 2 6 5 4 3 3 7 6 12 16 15 14 13 16 13 1 3 5 5 4 10 16 1 4 5 9 9 7 10 5
22 22 23 24 25 26 26 25 24 24 22 14 2 2 5 2 4 7 8 12 8 17 17 7 9 8 8 9 7 11 11 6 8 5 5 6 6 10 11 6 4 8 6 2 5 2 11
24 23 23 24 24 25 25 24 24 24 23 14 2 3 3 2 3 8 11 12 11 4 7 9 13 13 18 16 15 9 5 3 5 9 11 1 8 16 15 8 4 6 11 9 7 4 3
24 24 24 24 24 23 22 22 21 22 22 11 1 2 3 4 6 12 14 8 15 19 11 14 9 13 16 16 19 21 15 14 8 5 4 4 9 11 15 12 9 15 13 11 11 11 8
24 24 24 24 24 23 22 22 21 21 18 2 3 3 2 4 9 16 14 9 17 22 13 16 14 19 18 18 19 23 19 16 16 4 3 4 4 4 5 11 9 9 12 12 14 16 14
23 23 23 22 21 21 22 19 19 17 14 3 2 3 2 8 9 6 12 18 16 13 9 19 17 14 16 17 11 11 14 14 8 6 6 4 3 2 7 4 5 7 12 15 2 6 4
21 21 21 21 21 20 20 17 17 15 13 9 7 3 3 9 6 12 16 17 20 19 16 19 13 12 7 7 10 12 10 11 11 16 12 10 10 6 5 7 10 5 6 1 11 8 7
20 20 20 20 20 19 18 17 17 14 14 12 9 4 2 7 5 16 11 14 17 12 17 15 20 16 10 6 6 7 2 3 7 12 10 11 7 5 7 6 3 3 4 2 2 4 7
18 18 19 20 19 18 17 16 15 14 15 12 11 10 3 4 6 5 12 10 7 10 11 9 9 2 2 4 5 4 5 3 3 3 3 4 7 6 4 5 6 5 5 10 6 3 6
18 19 19 19 19 18 18 17 17 15 14 14 11 11 7 4 5 4 5 5 2 4 6 4 4 3 5 4 4 4 1 3 2 3 2 2 4 11 11 7 4 10 13 10 5 3 6
20 20 20 20 20 20 20 20 19 18 15 14 13 10 6 2 4 3 4 4 4 3 4 4 5 2 2 3 3 3 2 2 1 4 4 2 4 1 4 6 4 21 1 3 5 6 8
19 18 19 19 17 20 21 21 19 18 16 10 6 6 7 3 2 6 14 12 7 5 4 3 6 9 3 4 3 2 2 1 2 1 7 2 4 3 5 3 6 9 12 9 9 7 9
Wind_Direction
20 14 10 8 8 7 5 2 360 358 356 354 351 348 346 343 339 335 331 327 322 318 315 312 314 308 246 228 250 198 171 171 175 177 184 179 184 198 210 206 197 237 252 248 250 253 251
22 20 17 14 10 7 4 1 359 358 354 352 349 346 344 341 339 335 330 325 319 317 311 310 306 257 223 243 229 188 184 180 184 181 188 191 213 207 218 218 206 213 241 258 258 249 236
25 22 17 12 8 5 2 360 356 354 351 348 347 346 344 343 341 336 330 322 316 313 308 305 278 201 224 250 205 187 186 194 199 192 181 202 186 192 176 214 225 252 271 267 249 245 231
18 13 9 6 3 0 357 355 354 352 349 346 345 344 342 339 339 336 330 323 316 310 307 292 218 188 249 248 211 190 188 185 196 203 214 179 179 206 223 118 199 237 232 263 167 183 183
15 9 6 2 358 356 353 349 347 347 346 344 342 341 340 338 341 338 333 326 315 321 324 139 148 219 256 265 198 207 186 178 158 147 118 137 167 212 175 221 242 215 251 229 267 200 148
13 7 2 359 356 352 350 346 344 342 341 340 339 337 338 336 340 340 338 328 356 56 75 148 81 248 235 267 101 147 172 153 149 141 133 178 199 213 213 203 234 244 231 233 236 178 206
12 5 2 357 357 353 351 351 350 348 347 344 341 340 339 337 340 344 349 354 351 207 349 273 298 286 289 323 220 175 159 155 136 183 199 196 212 217 223 220 240 278 265 260 259 251 250
9 3 358 356 352 350 350 348 345 347 346 345 342 343 342 339 343 355 17 51 31 297 302 274 259 261 262 271 270 213 170 186 193 215 194 216 238 245 263 260 244 246 259 263 274 266 240
4 359 355 354 351 349 351 351 350 347 346 346 344 343 345 343 344 0 35 48 349 267 273 293 235 249 193 169 221 221 188 187 215 230 221 236 236 319 236 241 238 239 250 258 264 267 239
358 353 350 351 349 349 348 351 352 348 345 345 343 342 344 345 9 339 5 345 347 169 287 234 214 170 150 227 241 192 193 200 203 238 234 252 263 246 234 241 237 257 230 250 247 243 259
348 343 340 339 340 339 340 342 343 345 342 342 342 338 341 339 303 315 315 329 333 235 317 75 112 106 121 236 71 195 202 203 221 197 191 217 200 206 222 237 229 263 228 226 236 234 259
344 340 335 334 332 331 332 334 333 335 337 337 338 339 340 331 307 294 320 324 232 254 250 155 87 242 254 205 209 132 190 241 332 239 241 260 321 223 220 204 198 144 149 142 165 227 251
337 336 335 334 333 331 327 327 330 330 331 332 335 336 331 301 284 308 324 291 266 227 43 53 343 3 329 242 220 198 190 194 215 208 227 225 239 231 210 219 187 194 188 228 222 202 252
335 334 333 331 331 331 329 330 327 328 329 328 331 333 323 303 286 309 308 193 221 259 294 7 325 288 244 210 217 213 218 235 224 232 269 258 257 192 189 218 221 205 209 218 247 245 266
333 334 332 332 332 329 329 326 328 325 326 325 328 331 322 328 336 319 250 214 256 261 341 331 299 258 240 226 269 259 232 255 261 206 225 239 246 144 218 200 208 166 210 245 262 248 257
331 331 332 330 331 328 330 328 326 325 323 327 331 317 304 340 325 285 236 254 274 328 332 307 281 256 279 288 259 244 231 148 242 216 225 259 273 192 154 193 219 224 138 185 212 236 234
332 330 330 331 330 329 331 329 330 327 328 331 318 313 262 359 274 237 238 250 296 323 331 283 288 273 268 280 251 267 259 253 209 180 208 249 237 207 189 211 219 190 214 218 291 242 248
330 331 331 330 328 329 329 327 328 328 329 327 289 269 241 27 282 247 248 288 337 287 317 292 267 259 260 262 272 254 257 246 177 206 221 213 267 254 255 110 326 310 264 248 236 224 233
332 333 331 329 328 329 327 328 327 328 331 323 251 263 295 248 252 272 267 265 268 274 276 270 281 281 291 266 270 255 270 355 329 254 239 180 220 253 239 233 211 233 212 159 103 84 232
332 329 327 328 325 323 326 328 326 326 329 336 290 287 257 222 270 273 274 280 270 256 262 264 281 298 287 271 281 286 263 289 317 274 281 3 249 241 247 260 114 192 191 185 189 208 228
330 328 325 319 317 318 321 325 327 329 337 345 129 285 329 269 243 260 275 272 277 279 266 282 284 267 281 297 300 286 276 307 280 326 307 266 254 254 259 269 234 231 202 195 213 236 240
333 329 324 324 322 321 317 317 323 327 342 302 279 280 228 257 270 264 259 240 258 273 281 273 264 280 290 284 276 281 287 275 263 236 255 180 256 308 270 275 256 256 259 251 244 254 257
339 332 333 334 333 333 330 323 328 327 342 278 257 284 276 281 284 274 268 265 260 270 243 257 273 285 282 284 293 285 281 263 234 239 255 242 245 284 272 254 231 239 236 254 160 55 341
349 348 346 343 340 336 335 331 329 330 330 311 292 219 277 295 284 292 287 273 269 261 258 281 275 268 260 323 297 265 239 251 241 241 241 255 260 260 259 195 229 56 28 316 104 70 59
353 353 350 345 344 343 342 338 330 325 327 319 306 281 243 282 280 292 291 279 272 270 269 267 282 262 293 284 284 272 218 255 240 240 236 229 251 262 257 234 84 165 51 52 18 76 24
354 351 352 349 344 344 344 344 340 329 323 315 307 288 235 276 261 321 289 295 286 276 292 255 285 324 185 250 260 247 250 229 229 160 78 215 251 254 237 242 231 68 23 351 307 146 23
0 358 353 349 347 343 340 337 332 327 321 316 296 280 248 248 272 239 266 294 276 278 261 274 300 277 193 240 250 278 319 349 207 247 174 198 220 230 238 254 96 352 315 311 213 66 19
358 352 350 346 343 341 339 334 328 321 312 309 290 301 268 273 303 325 342 342 321 299 307 9 294 193 244 254 273 296 257 185 226 42 8 9 319 22 282 227 194 350 53 356 1 35 24
350 346 347 347 347 351 347 337 325 316 316 307 277 288 287 240 341 96 88 57 38 329 301 292 290 292 254 253 239 267 252 30 353 117 27 74 9 11 15 74 62 31 55 40 30 29 19